Location: Newark
(41.6500°N, 71.4833°W)
Time: 19:56:12
(UTC+00:00)

Courier 1B - Pass Details

Date: 21 January 2020
Orbit: 962 x 1209 km, 28.3° (Epoch: 17 February)

Event Time Altitude Azimuth Distance (km) Brightness Sun altitude
Rises 14:11:03 0° 257° (WSW) 4,107 10.5 17.4°
Reaches altitude 10° 14:15:22 10° 237° (WSW) 3,139 10.1 17.9°
Maximum altitude 14:19:27 15° 205° (SSW) 2,751 10.3 18.4°
Drops below altitude 10° 14:23:31 10° 172° (S) 3,097 11.3 18.9°
Sets 14:27:44 0° 151° (SSE) 4,020 12.3 19.4°
